Weather History for Fort Myers, FL

Change the Weather History Date:

Wednesday, November 28, 2012

  Actual Average Record
Temperature  
Mean Temperature 69 °F 70 °F  
Max Temperature 77 °F 79 °F 90 °F (1990)
Min Temperature 61 °F 60 °F 35 °F (1903)
Degree Days  
Heating Degree Days 0 1  
Month to date heating degree days 12 13  
Since 1 July heating degree days 15 15  
Cooling Degree Days 4 6  
Month to date cooling degree days 104 206  
Year to date cooling degree days 4204 3854  
Growing Degree Days 20 (Base 50)    
Moisture  
Dew Point 62 °F    
Average Humidity 81    
Maximum Humidity 100    
Minimum Humidity 56    
Precipitation  
Precipitation 0.00 in 0.05 in 1.46 in (1920)
Month to date precipitation 0.66 1.85  
Year to date precipitation 47.43 54.11  
Sea Level Pressure  
Sea Level Pressure 30.18 in    
Wind  
Wind Speed 7 mph (NNE)    
Max Wind Speed 15 mph    
Max Gust Speed 20 mph    
Visibility 8 miles    
Events Fog    
T = Trace of Precipitation, MM = Missing Value Source: NWS Daily Summary

Daily Weather History Graph

Daily Weather History Graph

Search for Another Location

Airport:

Trip Planner

Search our weather history database for the weather conditions in past years. The results will help you decide how hot, cold, wet, or windy it might be!

Date:

Astronomy

Nov. 28, 2012 Rise Set
Actual Time 6:56 AM EST 5:34 PM EST
Civil Twilight 6:31 AM EST 5:59 PM EST
Nautical Twilight 6:03 AM EST 6:27 PM EST
Astronomical Twilight 5:35 AM EST 6:55 PM EST
Moon 5:48 PM EST (11/28) 6:53 AM EST (11/28)
Length of Visible Light 11h 27m
Length of Day
10h 37m
Full, 100% of the Moon is Illuminated
Nov 28
Full
Dec 6
Last Quarter
Dec 13
New
Dec 20
First Quarter
Dec 28
Full

Hourly Weather History & Observations

Time (EST) Temp. Dew Point Humidity Pressure Visibility Wind Dir Wind Speed Gust Speed Precip Events Conditions
12:53 AM 68.0 °F 64.0 °F 87% 30.14 in 10.0 mi Calm Calm - N/A   Overcast
1:53 AM 68.0 °F 66.0 °F 93% 30.14 in 10.0 mi Calm Calm - N/A   Overcast
2:53 AM 68.0 °F 66.0 °F 93% 30.13 in 10.0 mi NW 4.6 mph - N/A   Scattered Clouds
3:53 AM 66.9 °F 64.9 °F 93% 30.12 in 10.0 mi Calm Calm - N/A   Clear
4:53 AM 66.0 °F 64.9 °F 96% 30.12 in 7.0 mi NNW 3.5 mph - N/A   Mostly Cloudy
5:53 AM 64.9 °F 64.0 °F 97% 30.14 in 10.0 mi Calm Calm - N/A   Clear
6:53 AM 63.0 °F 62.1 °F 97% 30.15 in 9.0 mi Calm Calm - N/A   Clear
7:36 AM 64.4 °F 62.6 °F 94% 30.16 in 8.0 mi NE 4.6 mph - N/A   Scattered Clouds
7:42 AM 64.4 °F 62.6 °F 94% 30.16 in 2.0 mi NNE 4.6 mph - N/A   Mostly Cloudy
7:49 AM 64.4 °F 62.6 °F 94% 30.16 in 0.5 mi North 5.8 mph - N/A Fog Fog
7:53 AM 64.0 °F 63.0 °F 96% 30.17 in 0.5 mi North 5.8 mph - N/A Fog Fog
8:53 AM 64.0 °F 64.0 °F 100% 30.19 in 2.0 mi North 4.6 mph - N/A   Overcast
9:06 AM 64.4 °F 64.4 °F 100% 30.19 in 4.0 mi NE 4.6 mph - N/A   Overcast
9:40 AM 66.2 °F 62.6 °F 88% 30.21 in 9.0 mi North 4.6 mph - N/A   Overcast
9:53 AM 66.0 °F 63.0 °F 90% 30.22 in 6.0 mi NNE 8.1 mph - N/A   Overcast
10:53 AM 68.0 °F 64.0 °F 87% 30.22 in 7.0 mi NNE 10.4 mph - N/A   Overcast
11:16 AM 69.8 °F 64.4 °F 83% 30.21 in 6.0 mi NNE 9.2 mph - N/A   Haze
11:49 AM 71.6 °F 64.4 °F 78% 30.20 in 9.0 mi ENE 6.9 mph - N/A   Mostly Cloudy
11:53 AM 73.0 °F 63.0 °F 71% 30.21 in 9.0 mi NE 6.9 mph - N/A   Mostly Cloudy
12:46 PM 73.4 °F 62.6 °F 69% 30.18 in 10.0 mi NNE 11.5 mph - N/A   Scattered Clouds
12:53 PM 73.9 °F 63.0 °F 68% 30.18 in 10.0 mi North 10.4 mph - N/A   Mostly Cloudy
1:09 PM 75.2 °F 62.6 °F 65% 30.16 in 10.0 mi North 10.4 mph - N/A   Scattered Clouds
1:22 PM 75.2 °F 62.6 °F 65% 30.16 in 10.0 mi NE 9.2 mph - N/A   Mostly Cloudy
1:30 PM 75.2 °F 62.6 °F 65% 30.16 in 10.0 mi NE 10.4 mph - N/A   Partly Cloudy
1:53 PM 75.9 °F 62.1 °F 62% 30.16 in 10.0 mi North 9.2 mph - N/A   Partly Cloudy
2:53 PM 75.9 °F 60.1 °F 58% 30.15 in 10.0 mi NNE 9.2 mph - N/A   Scattered Clouds
3:53 PM 77.0 °F 60.1 °F 56% 30.16 in 10.0 mi NNE 12.7 mph 16.1 mph N/A   Mostly Cloudy
4:53 PM 73.9 °F 59.0 °F 59% 30.17 in 10.0 mi NNE 11.5 mph - N/A   Clear
5:53 PM 71.1 °F 59.0 °F 66% 30.18 in 10.0 mi NNE 10.4 mph - N/A   Clear
6:53 PM 69.1 °F 59.0 °F 70% 30.19 in 10.0 mi ENE 10.4 mph - N/A   Clear
7:53 PM 68.0 °F 59.0 °F 73% 30.20 in 10.0 mi ENE 9.2 mph - N/A   Clear
8:53 PM 64.9 °F 59.0 °F 81% 30.22 in 10.0 mi NE 6.9 mph - N/A   Clear
9:53 PM 64.0 °F 57.9 °F 80% 30.22 in 10.0 mi NE 9.2 mph - N/A   Clear
10:53 PM 63.0 °F 57.9 °F 84% 30.22 in 10.0 mi NE 8.1 mph - N/A   Clear
11:53 PM 61.0 °F 57.0 °F 87% 30.21 in 10.0 mi NE 11.5 mph - N/A   Clear